Oak Harbor, WA

7:57 PM PST on February 13, 2016 (GMT -0800)
Whidbey Island Naval Air Station

Weather History for KNUW - October, 2012

Change the Weather History Date:

Tuesday, October 2, 2012

  Actual Average Record
Temperature  
Mean Temperature 50 °F -  
Max Temperature 57 °F 58 °F 69 °F (2008)
Min Temperature 44 °F 44 °F 37 °F (1999)
Degree Days  
Heating Degree Days 14    
Moisture  
Dew Point 43 °F    
Average Humidity 80    
Maximum Humidity 97    
Minimum Humidity 49    
Precipitation  
Precipitation 0.00 in - - ()
Sea Level Pressure  
Sea Level Pressure 30.23 in    
Wind  
Wind Speed 4 mph (WNW)    
Max Wind Speed 9 mph    
Max Gust Speed -    
Visibility 8 miles    
Events Fog    
Averages and records for this station are not official NWS values.
T = Trace of Precipitation, MM = Missing Value Source: NWS Daily Summary

Daily Weather History Graph

Daily Weather History Graph

Search for Another Location

Airport or City:

Trip Planner

Search our weather history database for the weather conditions in past years. The results will help you decide how hot, cold, wet, or windy it might be!

Date:

Astronomy

Oct. 02, 2012 Rise Set
Actual Time 7:12 AM PDT 6:46 PM PDT
Civil Twilight 6:41 AM PDT 7:17 PM PDT
Nautical Twilight 6:04 AM PDT 7:53 PM PDT
Astronomical Twilight 5:27 AM PDT 8:30 PM PDT
Moon 7:45 PM PDT (10/2) 10:00 AM PDT (10/2)
Length of Visible Light 12h 36m
Length of Day
11h 34m
Waning Gibbous, 93% of the Moon is Illuminated
Oct 2
Waning Gibbous
Oct 8
Last Quarter
Oct 15
New
Oct 21
First Quarter
Oct 29
Full

Hourly Weather History & Observations

Time (PDT) Temp. Windchill Dew Point Humidity Pressure Visibility Wind Dir Wind Speed Gust Speed Precip Events Conditions
12:56 AM 50.0 °F - 46.0 °F 86% 30.20 in 10.0 mi Calm Calm - N/A   Scattered Clouds
1:56 AM 48.0 °F - 45.0 °F 89% 30.19 in 10.0 mi Calm Calm - N/A   Clear
2:56 AM 44.1 °F 42.5 °F 41.0 °F 89% 30.20 in 8.0 mi SE 3.5 mph - N/A   Mostly Cloudy
3:56 AM 48.0 °F - 45.0 °F 89% 30.21 in 10.0 mi East 4.6 mph - N/A   Mostly Cloudy
4:56 AM 46.9 °F - 44.1 °F 90% 30.21 in 10.0 mi ESE 4.6 mph - N/A   Mostly Cloudy
5:56 AM 46.4 °F 44.3 °F 42.8 °F 87% 30.22 in 10.0 mi SE 4.6 mph - N/A   Scattered Clouds
6:35 AM 44.6 °F 41.4 °F 42.8 °F 93% 30.20 in 2.5 mi SE 5.8 mph - N/A   Scattered Clouds
6:42 AM 44.6 °F 41.4 °F 42.8 °F 93% 30.20 in 0.5 mi SSE 5.8 mph - N/A Fog Fog
6:52 AM 44.6 °F 43.1 °F 42.8 °F 93% 30.20 in 0.2 mi SSE 3.5 mph - N/A Fog Fog
6:56 AM 44.1 °F 42.5 °F 42.1 °F 93% 30.22 in 0.2 mi SSE 3.5 mph - N/A Fog Fog
7:44 AM 46.4 °F 44.3 °F 44.6 °F 93% 30.21 in 0.5 mi SSE 4.6 mph - N/A Fog Fog
7:56 AM 46.9 °F - 45.0 °F 93% 30.22 in 0.5 mi SE 4.6 mph - N/A   Mostly Cloudy
8:43 AM 48.2 °F - 46.4 °F 93% 30.21 in 5.0 mi Calm Calm - N/A   Mostly Cloudy
8:56 AM 48.9 °F - 48.0 °F 97% 30.22 in 8.0 mi Calm Calm - N/A   Mostly Cloudy
9:56 AM 52.0 °F - 48.9 °F 89% 30.23 in 10.0 mi Calm Calm - N/A   Mostly Cloudy
10:56 AM 55.9 °F - 43.0 °F 62% 30.24 in 10.0 mi NNW 9.2 mph - N/A   Scattered Clouds
11:56 AM 55.9 °F - 37.0 °F 49% 30.23 in 10.0 mi NNW 6.9 mph - N/A   Scattered Clouds
12:56 PM 57.0 °F - 37.9 °F 49% 30.23 in 10.0 mi NW 4.6 mph - N/A   Scattered Clouds
1:56 PM 54.0 °F - 46.0 °F 75% 30.23 in 10.0 mi West 8.1 mph - N/A   Scattered Clouds
2:56 PM 54.0 °F - 46.9 °F 77% 30.22 in 10.0 mi West 8.1 mph - N/A   Partly Cloudy
3:56 PM 54.0 °F - 46.0 °F 75% 30.24 in 10.0 mi West 5.8 mph - N/A   Partly Cloudy
4:56 PM 53.1 °F - 45.0 °F 74% 30.25 in 10.0 mi West 6.9 mph - N/A   Partly Cloudy
5:56 PM 54.0 °F - 44.1 °F 69% 30.23 in 10.0 mi WNW 8.1 mph - N/A   Partly Cloudy
6:56 PM 50.0 °F - 44.1 °F 80% 30.25 in 10.0 mi WNW 6.9 mph - N/A   Partly Cloudy
7:56 PM 48.9 °F - 43.0 °F 80% 30.25 in 10.0 mi North 8.1 mph - N/A   Partly Cloudy
8:56 PM 50.0 °F - 44.1 °F 80% 30.27 in 10.0 mi WNW 5.8 mph - N/A   Scattered Clouds
9:56 PM 53.1 °F - 41.0 °F 64% 30.29 in 10.0 mi North 9.2 mph - N/A   Scattered Clouds
10:56 PM 53.1 °F - 37.9 °F 57% 30.31 in 10.0 mi North 9.2 mph - N/A   Scattered Clouds
11:56 PM 51.1 °F - 35.1 °F 54% 30.32 in 10.0 mi North 6.9 mph - N/A   Partly Cloudy